Погода в Волочке

Россия / Псковская область     57°01′08″N   29°02′36″E
темп.,
°C
ветер,
м/с
пор.,
м/с
влажн.,
%
обл.,
%
осадки,
мм/ч
давл.,
гПа
погр.,
м
11 мая, вт
вт1100:00+11ююв31281100 0.0 1024309
03:00+8ююв2109157 0.0 1025206
06:00+9ююв3118272 0.0 1025244
09:00+14ю4858100 0.0 1026464
12:00+19ююв46435 0.0 10251098
15:00+21ююв45409 0.0 10241332
18:00+20юв35506 0.0 1023984
21:00+13юв377330 0.0 1022110
12 мая, ср
ср1200:00+10юв28776 0.0 1023139
03:00+9юв26865 0.0 1023102
06:00+10юв27871 0.0 1023148
09:00+17юв35680 0.0 1023540
12:00+21юв46552 0.0 10221450
15:00+21юв5754100 0.0 10211968
18:00+20юв37550 0.0 10191646
21:00+14в11765 0.0 101811
13 мая, чт
чт1300:00+14всв2685100 0.1 1016152
03:00+14всв41195100 0.3 1013631
06:00+11вюв411914 0.1 1014781
09:00+13вюв510661 0.1 1014802
12:00+16вюв6115823 0.1 10131783
15:00+15юв595645 0.1 10131901
18:00+16юв4755100 0.0 10111417
21:00+11вюв25815 0.1 101196
14 мая, пт
пт1400:00+8юв27893 0.0 1011147
03:00+7вюв269496 0.0 1011131
06:00+8вюв3108890 0.0 1011314
09:00+9вюв41193100 1.0 1010477
12:00+15ююв51067100 0.0 10101001
15:00+14юв497299 0.0 1010775
18:00+14вюв278356 0.4 1009255
21:00+13вюв239589 2.9 100876
15 мая, сб
сб1500:00+11в249812 0.9 100774
03:00+10юв119797 0.9 100711
06:00+10вюв119793 0.0 100631
09:00+16юв138376 0.1 1005447
12:00+17ююз348588 3.9 1005880
15:00+17юз358535 6.9 1005836
18:00+16юз35895 2.3 1005669
21:00+13юз249532 2.6 100681